| time (UTC) | temp F | wind direction | speed MPH | gust MPH | rain 1hr in | rain 24hr in | rain mn in | humidity % | barometer mb |
| 20260502181013 | 0 | 135 | 2.0 | 4.0 | 0.00 | 0.00 | 0.00 | 1018.2 | |
| 20260502163325 | 0 | 135 | 4.0 | 5.0 | 0.00 | 0.00 | 0.00 | 1018.1 | |
| 20260502162239 | 0 | 135 | 1.0 | 6.0 | 0.00 | 0.00 | 0.00 | 1018.2 | |
| 20260502161155 | 0 | 90 | 4.0 | 6.0 | 0.00 | 0.00 | 0.00 | 1018.3 | |
| 20260502160110 | 0 | 315 | 1.0 | 7.0 | 0.00 | 0.00 | 0.00 | 1018.4 | |
| 20260502151816 | 0 | 90 | 2.0 | 5.0 | 0.00 | 0.00 | 0.00 | 1018.9 | |
| 20260502150732 | 0 | 23 | 2.0 | 5.0 | 0.00 | 0.00 | 0.00 | 1018.9 | |
| 20260502123658 | 0 | 23 | 1.0 | 5.0 | 0.00 | 0.00 | 0.00 | 1020.6 | |
| 20260502122616 | 0 | 0 | 3.0 | 5.0 | 0.00 | 0.00 | 0.00 | 1020.6 | |
| 20260502121533 | 0 | 135 | 1.0 | 6.0 | 0.00 | 0.00 | 0.00 | 1020.9 | |
| 20260502120450 | 0 | 0 | 2.0 | 7.0 | 0.00 | 0.00 | 0.00 | 1020.9 | |
| 20260502115406 | 0 | 90 | 4.0 | 6.0 | 0.00 | 0.00 | 0.00 | 1021.0 | |
| 20260502114323 | 0 | 45 | 3.0 | 5.0 | 0.00 | 0.00 | 0.00 | 1021.2 | |
| 20260502113238 | 0 | 45 | 1.0 | 9.0 | 0.00 | 0.00 | 0.00 | 1021.3 | |
| 20260502112153 | 0 | 135 | 9.0 | 10.0 | 0.00 | 0.00 | 0.00 | 1021.6 | |
| 20260502111107 | 0 | 90 | 3.0 | 6.0 | 0.00 | 0.00 | 0.00 | 1021.7 | |
| 20260502110025 | 0 | 45 | 2.0 | 5.0 | 0.00 | 0.00 | 0.00 | 1022.0 | |
| 20260502104936 | 0 | 45 | 3.0 | 6.0 | 0.00 | 0.00 | 0.00 | 1022.2 | |
| 20260502103852 | 0 | 90 | 4.0 | 6.0 | 0.00 | 0.00 | 0.00 | 1022.2 | |
| 20260502102808 | 0 | 180 | 2.0 | 4.0 | 0.00 | 0.00 | 0.00 | 1022.4 | |
| 20260502101725 | 0 | 45 | 4.0 | 8.0 | 0.00 | 0.00 | 0.00 | 1022.5 | |
| 20260502100643 | 0 | 90 | 2.0 | 6.0 | 0.00 | 0.00 | 0.00 | 1022.7 | |
| 20260502091251 | 0 | 315 | 2.0 | 5.0 | 0.00 | 0.00 | 0.00 | 1023.5 | |
| 20260502090208 | 0 | 315 | 3.0 | 5.0 | 0.00 | 0.00 | 0.00 | 1023.6 | |
| 20260502071448 | 0 | 225 | 2.0 | 4.0 | 0.00 | 0.00 | 0.00 | 1024.6 | |
| 20260502070400 | 0 | 90 | 1.0 | 2.0 | 0.00 | 0.00 | 0.00 | 1024.7 | |
| 20260502065316 | 0 | 45 | 0.0 | 2.0 | 0.00 | 0.00 | 0.00 | 1024.9 | |
| 20260502064230 | 0 | 45 | 1.0 | 3.0 | 0.00 | 0.00 | 0.00 | 1025.1 | |
| 20260502063142 | 0 | 180 | 1.0 | 5.0 | 0.00 | 0.00 | 0.00 | 1025.3 | |
| 20260502062058 | 0 | 225 | 0.0 | 2.0 | 0.00 | 0.00 | 0.00 | 1025.5 | |
| 20260502061015 | 0 | 0 | 1.0 | 1.0 | 0.00 | 0.00 | 0.00 | 1025.7 | |
| 20260502055931 | 0 | 315 | 0.0 | 1.0 | 0.00 | 0.00 | 0.00 | 1025.9 | |
| 20260502054847 | 0 | 135 | 0.0 | 0.0 | 0.00 | 0.00 | 0.00 | 1026.2 | |
| 20260502053804 | 0 | 0 | 0.0 | 0.0 | 0.00 | 0.00 | 0.00 | 1026.4 | |
| 20260502052720 | 0 | 45 | 0.0 | 0.0 | 0.00 | 0.00 | 0.00 | 1026.5 | |
| 20260501225457 | 0 | 135 | 0.0 | 0.0 | 0.00 | 0.00 | 0.00 | 1027.0 | |
| 20260501224412 | 0 | 225 | 0.0 | 0.0 | 0.00 | 0.00 | 0.00 | 1027.0 | |
| 20260501223328 | 0 | 135 | 0.0 | 0.0 | 0.00 | 0.00 | 0.00 | 1027.1 | |
| 20260501222245 | 0 | 135 | 0.0 | 0.0 | 0.00 | 0.00 | 0.00 | 1027.1 | |
| 20260501221159 | 0 | 135 | 0.0 | 1.0 | 0.00 | 0.00 | 0.00 | 1027.1 | |
| 20260501220113 | 0 | 135 | 0.0 | 3.0 | 0.00 | 0.00 | 0.00 | 1027.1 | |
| 20260501215030 | 0 | 135 | 2.0 | 2.0 | 0.00 | 0.00 | 0.00 | 1026.9 | |
| 20260501213944 | 0 | 135 | 0.0 | 0.0 | 0.00 | 0.00 | 0.00 | 1026.9 | |
| 20260501212900 | 0 | 135 | 0.0 | 0.0 | 0.00 | 0.00 | 0.00 | 1026.9 | |
| 20260501211816 | 0 | 135 | 0.0 | 0.0 | 0.00 | 0.00 | 0.00 | 1026.9 | |
| 20260501210727 | 0 | 270 | 0.0 | 0.0 | 0.00 | 0.00 | 0.00 | 1027.0 | |
| 20260501205643 | 0 | 225 | 0.0 | 2.0 | 0.00 | 0.00 | 0.00 | 1027.0 | |
| 20260501204601 | 0 | 135 | 1.0 | 2.0 | 0.00 | 0.00 | 0.00 | 1027.0 | |
| 20260501203516 | 0 | 135 | 1.0 | 2.0 | 0.00 | 0.00 | 0.00 | 1027.0 | |
| 20260501202435 | 0 | 135 | 2.0 | 3.0 | 0.00 | 0.00 | 0.00 | 1026.9 | |
| 20260501201347 | 0 | 135 | 0.0 | 0.0 | 0.00 | 0.00 | 0.00 | 1026.9 | |
| 20260501200304 | 0 | 135 | 0.0 | 1.0 | 0.00 | 0.00 | 0.00 | 1026.9 | |
| 20260501195222 | 0 | 135 | 0.0 | 2.0 | 0.00 | 0.00 | 0.00 | 1026.7 | |
| 20260501194136 | 0 | 135 | 1.0 | 2.0 | 0.00 | 0.00 | 0.00 | 1026.7 | |
| 20260501193004 | 0 | 135 | 2.0 | 2.0 | 0.00 | 0.00 | 0.00 | 1026.5 | |
| 20260501191920 | 0 | 135 | 2.0 | 2.0 | 0.00 | 0.00 | 0.00 | 1026.3 | |
| 20260501190836 | 0 | 135 | 0.0 | 0.0 | 0.00 | 0.00 | 0.00 | 1026.1 | |
| 20260501185750 | 0 | 135 | 0.0 | 0.0 | 0.00 | 0.00 | 0.00 | 1025.9 | |
| 20260501184705 | 0 | 135 | 0.0 | 2.0 | 0.00 | 0.00 | 0.00 | 1025.7 | |
| 20260501183620 | 0 | 135 | 2.0 | 2.0 | 0.00 | 0.00 | 0.00 | 1025.4 | |
| 20260501182537 | 0 | 135 | 0.0 | 2.0 | 0.00 | 0.00 | 0.00 | 1025.1 |